Regional Weather Roundup
Issued by NWS Memphis, TN

Home | Current Version | Previous Version | Text Only | Print | Product List | Glossary On
Versions: 1 2 3 4 5 6 7 8 9 10 11 12 13 14 15 16 17 18 19 20 21 22 23 24 25 26 27 28 29 30 31 32 33 34 35 36 37 38 39 40 41 42 43 44 45 46 47 48 49 50
000
ASUS44 KMEG 222210
RWRMEG
MEMPHIS CWA HOURLY WEATHER ROUNDUP
NATIONAL WEATHER SERVICE MEMPHIS TN
500 PM CDT SUN APR 22 2018

...WEST TENNESSEE...

CITY           SKY/WX    TMP DP  RH WIND       PRES   REMARKS
MEMPHIS INTL   PTSUNNY   68  59  73 SE7       29.84F
NWS MEMPHIS      N/A     65 N/A N/A MISG        N/A
JACKSON        HVY RAIN  60  60 100 VRB7      29.89S FOG
COVINGTON      CLOUDY    61  61 100 E8        29.87F
SOMERVILLE     CLOUDY    61  61 100 N3        29.85S FOG
BOLIVAR        PTSUNNY   61  61 100 NE7       29.86F FOG
LEXINGTON      CLOUDY    59  59 100 E9G15     29.91S FOG
SELMER         PTSUNNY   61  59  94 E9        29.88R FOG
DYERSBURG      LGT RAIN  60  58  92 VRB7      29.90R
UNION CITY     PTSUNNY   59  57  94 E12G18    29.93S FOG
PARIS          CLOUDY    59  57  94 E14       29.94F
HUNTINGDON     CLOUDY    59  59 100 E9G15     29.92S FOG


...EASTERN ARKANSAS...

CITY           SKY/WX    TMP DP  RH WIND       PRES   REMARKS
JONESBORO      CLOUDY    64  63  96 CALM      29.84S
WEST MEMPHIS   CLOUDY    67  59  75 SE6       29.82S
BATESVILLE     CLOUDY    58  54  86 N7        29.87S
NEWPORT        CLOUDY    59  55  87 NW10      29.86S
WALNUT RIDGE   CLOUDY    59  56  89 N3        29.86R
BLYTHEVILLE    PTSUNNY   63  60  90 E14       29.88S
SEARCY         CLOUDY    62  59  90 N5        29.86S
STUTTGART      CLOUDY    67  58  72 W16       29.84S
PINE BLUFF     CLOUDY    67  56  67 NW9       29.84F
MONTICELLO     FAIR      70  57  63 W9        29.83F


...NORTH MISSISSIPPI...

CITY           SKY/WX    TMP DP  RH WIND       PRES   REMARKS
TUPELO         RAIN      63  60  90 NE10      29.80F FOG
BATESVILLE       N/A    N/A N/A N/A MISG        N/A
OLIVE BRANCH   PTSUNNY   64  64 100 CALM      29.84F
TUNICA           N/A     66  55  68 S6        29.84F
CLARKSDALE     MOSUNNY   70  63  78 SW6       29.83F
CORINTH        RAIN      63  61  94 E17       29.82F
GREENWOOD      CLOUDY    66  61  84 NW6       29.83F
COLUMBUS       RAIN      64  64 100 NE10      29.73F FOG
STARKVILLE     DRIZZLE   63  63 100 NE5       29.76F
GOLDEN TRIANGL RAIN      65  64  97 W6        29.74F FOG


...SOUTHEAST MISSOURI...

CITY           SKY/WX    TMP DP  RH WIND       PRES   REMARKS
KENNETT        PTSUNNY   61  61 100 E18       29.86F
MALDEN         PTSUNNY   61  57  88 E10G18    29.92S
WEST PLAINS    RAIN      53  52  96 NE10      29.91F FOG
POPLAR BLUFF   LGT RAIN  58  57  97 E14G24    29.89F
CAPE GIRARDEAU LGT RAIN  58  56  93 E14G26    29.95F


...NORTHWEST ALABAMA...

CITY           SKY/WX    TMP DP  RH WIND       PRES   REMARKS
MUSCLE SHOALS  HVY RAIN  60  57  89 E21G36    29.85F FOG


...MIDDLE TENNESSEE...

CITY           SKY/WX    TMP DP  RH WIND       PRES   REMARKS
NASHVILLE      LGT RAIN  60  56  86 E12       30.01F
CLARKSVILLE    LGT RAIN  59  54  83 E13       30.00F
COLUMBIA       CLOUDY    59  59 100 E9        29.94F FOG
LEWISBURG      CLOUDY    59  57  94 E6G13     29.96F FOG


...WESTERN KENTUCKY...

CITY           SKY/WX    TMP DP  RH WIND       PRES   REMARKS
PADUCAH        LGT RAIN  59  57  93 E14       29.97S
FORT CAMPBELL  DRIZZLE   59  59 100 E18       29.99


...CENTRAL ARKANSAS...

CITY           SKY/WX    TMP DP  RH WIND       PRES   REMARKS
LITTLE ROCK    PTSUNNY   65  56  72 NW15      29.86S


SKY/WX REPORTED AS FAIR MEANS FEW OR NO CLOUDS BELOW
12 THOUSAND FEET.





USA.gov is the U.S. government's official web portal to all federal, state and local government web resources and services.